Location: Northern Prairie Star Party
(53.2167°N, 112.5333°W)
Time: 18:03:30
(UTC-06:00)

Amateur Radio Satellites - All Passes

Search period start: 28 June 2016 17:33
Search period end: 29 June 2016 17:33
Location: Northern Prairie Star Party, 53.2167°N, 112.5333°W

Satellite Date Start Highest point End Downlink Frequencies (MHz)
Time Altitude Azimuth
HORYU 2 28 Jun 17:34:26 17:38:50 66° 257° (WSW) 17:43:19 437.375
STARS 28 Jun 17:37:10 17:41:25 44° 99° (E) 17:45:38 437.465
DOVE 4 28 Jun 17:54:06 17:55:45 12° 53° (NE) 17:57:24 437.250
BEESAT 28 Jun 17:54:36 17:57:54 19° 306° (NW) 18:01:11 436.000
BRITE-PL 28 Jun 17:55:09 17:59:48 45° 68° (ENE) 18:04:08 437.365/2234.400
ITUPSAT 1 28 Jun 17:55:39 17:58:59 19° 306° (NW) 18:02:17 437.325
CUTE-I 28 Jun 18:00:24 18:05:29 45° 64° (ENE) 18:10:36 437.470
HO-68 28 Jun 18:02:44 18:07:32 20° 40° (NE) 18:12:21 435.675
CUSAT 1 28 Jun 18:15:24 18:19:04 26° 61° (ENE) 18:22:01 437.405
Cosmos 2504 28 Jun 18:15:44 18:21:18 18° 318° (NW) 18:27:04 435.465 / 435.565
CUBESAT XI-V 28 Jun 18:22:55 18:27:08 33° 95° (E) 18:31:18 437.345
NOAA 15 28 Jun 18:28:15 18:33:33 90° 237° (WSW) 18:38:53 137.62
GOMX 1 28 Jun 18:28:51 18:33:06 42° 68° (ENE) 18:37:09 467.674
MOZHAYETS 4 28 Jun 18:32:24 18:36:43 39° 295° (WNW) 18:41:02
AO-7 28 Jun 18:34:10 18:38:39 15° 279° (W) 18:43:11 29.400- 29.500
RS-15 28 Jun 18:34:52 18:46:40 53° 16° (NNE) 18:58:43 29.354- 29.394
DANDE 28 Jun 18:37:47 18:42:40 27° 56° (NE) 18:46:29 436.750
KKS-1 28 Jun 18:41:52 18:45:46 31° 298° (WNW) 18:49:40 437.445
LilacSat-2 28 Jun 18:44:40 18:48:28 86° 75° (ENE) 18:52:19 437.200
CINEMA 3 28 Jun 18:48:50 18:50:49 13° 53° (NE) 18:52:48 145.822/145.860
AIST 1 28 Jun 18:53:49 18:57:55 41° 288° (WNW) 19:02:01
SO-50 28 Jun 18:56:03 19:00:42 42° 328° (NNW) 19:05:18 436.795
Cosmos 2499 28 Jun 19:00:38 19:08:21 41° 84° (E) 19:16:23 435.465 / 435.565
NOAA 18 28 Jun 19:00:48 19:06:14 63° 256° (WSW) 19:11:44 137.9125
Cubesat XI-IV 28 Jun 19:05:45 19:11:04 65° 257° (WSW) 19:16:27 437.490
GONETS M04 28 Jun 19:08:21 19:16:49 60° 92° (E) 19:25:18
STARS 28 Jun 19:13:52 19:17:38 28° 298° (WNW) 19:21:22 437.465
DOVE 4 28 Jun 19:28:33 19:32:47 73° 74° (ENE) 19:36:57 437.250
M-CUBED/EXP-1 PRIME 28 Jun 19:31:21 19:32:32 12° 48° (NE) 19:33:43 437.505
BRITE-PL 28 Jun 19:34:10 19:38:27 29° 265° (W) 19:42:30 437.365/2234.400
UWE-3 28 Jun 19:34:39 19:34:47 10° 49° (NE) 19:34:54 435.000/436.395/437.385
CANX-2 28 Jun 19:38:46 19:42:37 33° 65° (ENE) 19:46:31 2200.000
CUTE-I 28 Jun 19:40:45 19:45:40 36° 264° (W) 19:50:37 437.470
COMPASS 1 28 Jun 19:41:05 19:44:07 19° 58° (ENE) 19:47:08 437.405
STRAND 1 28 Jun 19:46:08 19:49:54 20° 89° (E) 19:53:39 437.568
HO-68 28 Jun 19:46:58 19:53:58 60° 63° (ENE) 20:01:02 435.675
CUSAT 1 28 Jun 19:57:36 20:01:09 28° 271° (W) 20:04:01 437.405
CUTE 1.7 + AOD 2 28 Jun 19:58:29 20:02:33 44° 68° (ENE) 20:06:40 437.475
CUBESAT XI-V 28 Jun 20:00:17 20:04:36 39° 294° (WNW) 20:08:53 437.345
SEEDS 28 Jun 20:02:24 20:06:18 36° 66° (ENE) 20:10:15 437.485
GOMX 1 28 Jun 20:07:32 20:11:22 27° 266° (W) 20:15:04 467.674
NOAA 15 28 Jun 20:10:42 20:14:06 17° 273° (W) 20:17:30 137.62
CUBEBUG 2 28 Jun 20:19:45 20:23:23 29° 63° (ENE) 20:27:08 437.445
DANDE 28 Jun 20:20:35 20:26:00 50° 266° (W) 20:30:01 436.750
LilacSat-2 28 Jun 20:22:06 20:23:22 11° 274° (W) 20:24:39 437.200
CINEMA 3 28 Jun 20:23:08 20:27:17 80° 74° (ENE) 20:31:31 145.822/145.860
AUBIESAT-1 28 Jun 20:24:13 20:27:06 28° 58° (ENE) 20:30:04 437.475
SO-50 28 Jun 20:38:31 20:42:20 22° 351° (N) 20:46:04 436.795
AAUSAT CUBESAT 2 28 Jun 20:40:52 20:44:56 50° 69° (ENE) 20:49:02 437.432
ZACube-1 28 Jun 20:45:26 20:48:59 26° 62° (ENE) 20:52:38 437.345
NOAA 18 28 Jun 20:46:05 20:48:03 12° 277° (W) 20:50:01 137.9125
RS-15 28 Jun 20:48:23 21:00:44 88° 46° (NE) 21:13:08 29.354- 29.394
Cubesat XI-IV 28 Jun 20:50:19 20:52:15 12° 278° (W) 20:54:11 437.490
Cosmos 2499 28 Jun 20:52:44 21:01:09 63° 288° (WNW) 21:10:00 435.465 / 435.565
DELFI C3 28 Jun 20:52:46 20:55:24 17° 58° (ENE) 20:58:03 145.870
Oscar 11 28 Jun 20:54:37 20:58:32 33° 64° (ENE) 21:02:28 145.826/435.025
FUNcube-1 28 Jun 21:02:32 21:06:22 34° 65° (ENE) 21:10:19 145.935
M-CUBED/EXP-1 PRIME 28 Jun 21:03:18 21:06:34 89° 104° (ESE) 21:09:55 437.505
GONETS M04 28 Jun 21:05:55 21:14:04 43° 296° (WNW) 21:22:16
UWE-3 28 Jun 21:06:10 21:10:17 53° 69° (ENE) 21:14:32 435.000/436.395/437.385
DOVE 4 28 Jun 21:08:34 21:11:03 15° 272° (W) 21:13:29 437.250
AO-85 28 Jun 21:10:10 21:11:32 11° 107° (ESE) 21:12:54 145.980
CANX-2 28 Jun 21:14:32 21:18:29 35° 264° (W) 21:22:28 2200.000
COMPASS 1 28 Jun 21:15:04 21:19:16 66° 258° (WSW) 21:23:30 437.405
YUBILEINY 28 Jun 21:16:57 21:20:21 12° 30° (NNE) 21:23:45 435.215
PRISM 28 Jun 21:21:43 21:24:58 22° 93° (E) 21:28:10 437.425
STRAND 1 28 Jun 21:24:29 21:29:41 76° 288° (WNW) 21:34:49 437.568
CUTE 1.7 + AOD 2 28 Jun 21:34:58 21:38:35 26° 267° (W) 21:42:14 437.475
HO-68 28 Jun 21:35:30 21:42:03 38° 265° (W) 21:48:41 435.675
SEEDS 28 Jun 21:38:16 21:42:04 31° 265° (W) 21:45:54 437.485
ESTCUBE 1 28 Jun 21:54:02 21:55:16 11° 49° (NE) 21:56:30 437.505/2401.250
CUBEBUG 2 28 Jun 21:55:59 21:59:56 39° 263° (W) 22:04:00 437.445
HUMSAT D 28 Jun 21:56:20 22:00:07 33° 64° (ENE) 22:03:57 437.325/437.525
AUBIESAT-1 28 Jun 21:58:47 22:01:38 27° 258° (WSW) 22:04:34 437.475
CINEMA 3 28 Jun 22:02:57 22:05:05 14° 274° (W) 22:07:12 145.822/145.860
Cosmos 2504 28 Jun 22:16:52 22:18:53 11° 25° (NNE) 22:20:53 435.465 / 435.565
AAUSAT CUBESAT 2 28 Jun 22:17:23 22:20:42 22° 269° (W) 22:24:01 437.432
SO-50 28 Jun 22:20:17 22:24:15 25° 16° (NNE) 22:28:08 436.795
ZACube-1 28 Jun 22:21:01 22:25:06 45° 262° (W) 22:29:18 437.345
DELFI C3 28 Jun 22:25:46 22:29:49 72° 258° (WSW) 22:33:53 145.870
Oscar 11 28 Jun 22:30:39 22:34:39 35° 264° (W) 22:38:41 145.826/435.025
FUNcube-1 28 Jun 22:38:48 22:42:38 33° 265° (W) 22:46:37 145.935
CUBEBUG 1 28 Jun 22:41:47 22:44:41 18° 56° (ENE) 22:47:35 437.445
UWE-3 28 Jun 22:43:52 22:47:07 21° 270° (W) 22:50:26 435.000/436.395/437.385
AO-85 28 Jun 22:45:50 22:51:04 52° 126° (SE) 22:56:03 145.980
Cosmos 2499 28 Jun 22:50:14 22:56:26 21° 314° (NW) 23:02:48 435.465 / 435.565
VELOX 1 28 Jun 22:50:14 22:53:26 20° 57° (ENE) 22:56:38 145.980
ANTELSAT 28 Jun 22:54:09 22:57:34 20° 90° (E) 23:00:59 437.575/2403.000
PRISM 28 Jun 22:56:34 23:00:32 48° 292° (WNW) 23:04:27 437.425
RS-15 28 Jun 23:01:23 23:12:07 38° 252° (WSW) 23:22:50 29.354- 29.394
50 SAT 28 Jun 23:02:26 23:05:18 21° 61° (ENE) 23:08:11 437.505
STRAND 1 28 Jun 23:04:50 23:08:05 17° 309° (NW) 23:11:20 437.568
GONETS M04 28 Jun 23:09:43 23:13:58 14° 325° (NW) 23:18:15
YUBILEINY 28 Jun 23:12:40 23:20:41 36° 60° (ENE) 23:28:39 435.215
ESTCUBE 1 28 Jun 23:26:43 23:31:09 54° 69° (ENE) 23:35:36 437.505/2401.250
UKube-1 28 Jun 23:28:53 23:32:33 28° 62° (ENE) 23:36:14 .
AISAT 28 Jun 23:29:55 23:34:03 41° 66° (ENE) 23:38:12 437.250
SPROUT 28 Jun 23:30:23 23:33:34 21° 59° (ENE) 23:36:45 437.525
HUMSAT D 28 Jun 23:31:54 23:35:44 34° 264° (W) 23:39:39 437.325/437.525
TIGRISAT 28 Jun 23:45:01 23:49:32 49° 100° (E) 23:54:05 435.000
DX 1 28 Jun 23:48:46 23:52:56 48° 68° (ENE) 23:57:08 434.975-435.025
UNISAT 6 28 Jun 23:50:14 23:54:49 58° 101° (E) 23:59:27 437.425
NANOSAT C BR1 28 Jun 23:59:58 00:02:27 15° 88° (E) 00:04:57 145.865
SO-50 29 Jun 00:00:54 00:05:38 59° 39° (NE) 00:10:12 436.795
QB50P1 29 Jun 00:02:56 00:05:43 17° 89° (E) 00:08:30 145.935-145.965
POPSAT HIP 1 29 Jun 00:06:06 00:09:01 18° 90° (E) 00:11:55 437.405
Cosmos 2504 29 Jun 00:08:37 00:16:12 30° 55° (NE) 00:23:36 435.465 / 435.565
CUBEBUG 1 29 Jun 00:16:07 00:20:29 78° 256° (WSW) 00:24:51 437.445
QB50P2 29 Jun 00:18:07 00:21:37 24° 93° (E) 00:25:05 145.880/145.840
DUCHIFAT 1 29 Jun 00:19:49 00:23:06 21° 92° (E) 00:26:23 145.980
POLYITAN 1 29 Jun 00:20:43 00:24:15 24° 93° (E) 00:27:46 437.675
VELOX 1 29 Jun 00:25:06 00:29:29 69° 257° (WSW) 00:33:54 145.980
AO-85 29 Jun 00:26:35 00:31:44 45° 326° (NW) 00:36:34 145.980
ANTELSAT 29 Jun 00:30:06 00:34:43 67° 288° (WNW) 00:39:22 437.575/2403.000
Cosmos 2491 29 Jun 00:31:25 00:39:01 35° 82° (E) 00:46:36 435.465 / 435.565
50 SAT 29 Jun 00:35:10 00:38:45 45° 260° (W) 00:42:23 437.505
TISAT 1 29 Jun 00:48:41 00:52:24 32° 64° (ENE) 00:56:08 437.305
UKube-1 29 Jun 01:04:20 01:08:27 43° 261° (W) 01:12:36 .
ESTCUBE 1 29 Jun 01:04:39 01:08:17 23° 268° (W) 01:11:56 437.505/2401.250
SPROUT 29 Jun 01:04:58 01:09:10 60° 259° (WSW) 01:13:25 437.525
AISAT 29 Jun 01:06:50 01:10:40 29° 265° (W) 01:14:31 437.250
YUBILEINY 29 Jun 01:09:30 01:18:17 72° 265° (W) 01:27:05 435.215
BUGSAT 1 29 Jun 01:13:56 01:17:40 33° 97° (E) 01:21:24 437.445
TIGRISAT 29 Jun 01:22:07 01:26:01 28° 299° (WNW) 01:29:58 435.000
DX 1 29 Jun 01:25:47 01:29:22 24° 267° (W) 01:32:58 434.975-435.025
Oscar 19 29 Jun 01:26:21 01:27:41 11° 82° (E) 01:29:01 437.125/150
SWISSCUBE 29 Jun 01:26:32 01:30:23 24° 58° (ENE) 01:34:14 437.505
UNISAT 6 29 Jun 01:27:30 01:31:14 25° 300° (WNW) 01:35:00 437.425
NANOSAT C BR1 29 Jun 01:34:28 01:38:44 77° 288° (WNW) 01:42:59 145.865
QB50P1 29 Jun 01:37:44 01:41:59 69° 288° (WNW) 01:46:13 145.935-145.965
POPSAT HIP 1 29 Jun 01:41:00 01:45:14 65° 288° (WNW) 01:49:28 437.405
SO-50 29 Jun 01:41:46 01:45:53 31° 241° (WSW) 01:49:53 436.795
JAS-2 29 Jun 01:41:57 01:47:19 36° 94° (E) 01:52:13 435.910
BEESAT 29 Jun 01:51:11 01:55:29 34° 62° (ENE) 01:59:47 436.000
ITUPSAT 1 29 Jun 01:52:29 01:56:48 34° 62° (ENE) 02:01:09 437.325
QB50P2 29 Jun 01:53:33 01:57:39 47° 292° (WNW) 02:01:45 145.880/145.840
DUCHIFAT 1 29 Jun 01:54:58 01:59:06 52° 291° (WNW) 02:03:14 145.980
POLYITAN 1 29 Jun 01:56:10 02:00:17 47° 292° (WNW) 02:04:23 437.675
CUBEBUG 1 29 Jun 01:56:11 01:57:32 11° 275° (W) 01:58:54 437.445
Cosmos 2504 29 Jun 02:01:54 02:10:54 89° 79° (E) 02:19:36 435.465 / 435.565
VELOX 1 29 Jun 02:06:38 02:06:49 10° 276° (W) 02:07:00 145.980
ANTELSAT 29 Jun 02:08:25 02:10:38 13° 308° (NW) 02:12:52 437.575/2403.000
AO-85 29 Jun 02:09:12 02:13:19 23° 348° (NNW) 02:17:12 145.980
TISAT 1 29 Jun 02:24:15 02:28:03 34° 263° (W) 02:31:53 437.305
Cosmos 2491 29 Jun 02:26:32 02:35:17 70° 285° (WNW) 02:44:03 435.465 / 435.565
MOZHAYETS 4 29 Jun 02:29:01 02:31:04 13° 50° (NE) 02:33:06
KKS-1 29 Jun 02:34:55 02:37:22 15° 53° (NE) 02:39:49 437.445
BUGSAT 1 29 Jun 02:49:23 02:53:02 32° 295° (WNW) 02:56:42 437.445
PCSat 29 Jun 02:54:47 02:59:45 38° 116° (ESE) 03:04:44 145.827
Oscar 19 29 Jun 03:02:57 03:08:04 63° 102° (ESE) 03:13:09 437.125/150
SWISSCUBE 29 Jun 03:03:04 03:07:50 62° 258° (WSW) 03:12:38 437.505
STARS 29 Jun 03:05:40 03:08:12 15° 53° (NE) 03:10:43 437.465
YUBILEINY 29 Jun 03:07:45 03:13:32 20° 289° (WNW) 03:19:20 435.215
NANOSAT C BR1 29 Jun 03:11:45 03:13:48 13° 307° (NW) 03:15:50 145.865
GONETS M04 29 Jun 03:14:28 03:18:50 14° 36° (NE) 03:23:12
QB50P1 29 Jun 03:15:18 03:17:01 12° 308° (NW) 03:18:44 145.935-145.965
AIST 1 29 Jun 03:17:32 03:19:57 15° 59° (ENE) 03:22:22
POPSAT HIP 1 29 Jun 03:18:44 03:20:15 12° 308° (NW) 03:21:46 437.405
Gurwin Techsat 1B 29 Jun 03:23:40 03:28:50 47° 99° (E) 03:33:57 435.225
BEESAT 3 29 Jun 03:26:18 03:29:47 31° 122° (ESE) 03:33:18 437.485
JAS-2 29 Jun 03:27:01 03:32:37 44° 297° (WNW) 03:37:42 435.910
ITAMSAT 1 29 Jun 03:27:04 03:31:03 21° 90° (E) 03:35:00 435.822/435.867
BEESAT 29 Jun 03:28:40 03:33:12 42° 262° (W) 03:37:47 436.000
ITUPSAT 1 29 Jun 03:30:01 03:34:35 42° 262° (W) 03:39:11 437.325
O/OREOS (USA 219) 29 Jun 03:45:24 03:49:46 54° 114° (ESE) 03:54:10 437.305
AO-85 29 Jun 03:51:16 03:55:18 24° 13° (NNE) 03:59:03 145.980
Cosmos 2504 29 Jun 03:56:13 04:03:14 27° 283° (WNW) 04:10:07 435.465 / 435.565
CUBESAT XI-V 29 Jun 03:57:51 03:59:58 13° 51° (NE) 04:02:06 437.345
MOZHAYETS 4 29 Jun 04:02:48 04:07:22 63° 71° (ENE) 04:12:00
BEESAT 2 29 Jun 04:04:53 04:08:38 41° 124° (SE) 04:12:24 435.950
KKS-1 29 Jun 04:08:51 04:13:17 81° 72° (ENE) 04:17:44 437.445
Cosmos 2491 29 Jun 04:27:31 04:34:02 22° 312° (NW) 04:40:34 435.465 / 435.565
AO-7 29 Jun 04:30:09 04:37:39 34° 94° (E) 04:45:05 29.400- 29.500
PCSat 29 Jun 04:37:43 04:43:02 54° 317° (NW) 04:48:24 145.827
STARS 29 Jun 04:39:33 04:43:56 85° 73° (ENE) 04:48:20 437.465
Oscar 19 29 Jun 04:42:51 04:47:04 26° 303° (WNW) 04:51:16 437.125/150
Cosmos 2499 29 Jun 04:43:27 04:50:37 26° 51° (NE) 04:57:31 435.465 / 435.565
SWISSCUBE 29 Jun 04:46:27 04:46:38 10° 278° (W) 04:46:49 437.505
AIST 1 29 Jun 04:53:56 04:58:13 85° 261° (W) 05:02:28
AIST 2 29 Jun 04:54:35 04:55:47 11° 110° (ESE) 04:56:59 435.215
BEESAT 3 29 Jun 05:03:33 05:07:22 47° 322° (NW) 05:11:13 437.485
Gurwin Techsat 1B 29 Jun 05:03:53 05:08:42 35° 299° (WNW) 05:13:29 435.225
ITAMSAT 1 29 Jun 05:05:49 05:11:05 73° 290° (WNW) 05:16:17 435.822/435.867
GONETS M04 29 Jun 05:10:27 05:18:42 43° 64° (ENE) 05:26:55
JAS-2 29 Jun 05:14:05 05:16:09 12° 322° (NW) 05:18:11 435.910
HORYU 2 29 Jun 05:20:02 05:22:50 16° 88° (E) 05:25:36 437.375
O/OREOS (USA 219) 29 Jun 05:25:34 05:29:28 28° 314° (NW) 05:33:23 437.305
CUBESAT XI-V 29 Jun 05:31:52 05:36:31 64° 71° (ENE) 05:41:10 437.345
AO-85 29 Jun 05:32:03 05:36:47 52° 37° (NE) 05:41:05 145.980
STRAND 1 29 Jun 05:32:29 05:34:32 12° 46° (NE) 05:36:36 437.568
MOZHAYETS 4 29 Jun 05:41:30 05:44:58 21° 270° (W) 05:48:29
BEESAT 2 29 Jun 05:42:46 05:46:31 38° 325° (NW) 05:50:19 435.950
KKS-1 29 Jun 05:47:50 05:50:27 15° 272° (W) 05:53:04 437.445
CUTE-I 29 Jun 06:13:47 06:14:45 10° 81° (E) 06:15:41 437.470
STARS 29 Jun 06:18:36 06:20:56 14° 273° (W) 06:23:16 437.465
AO-7 29 Jun 06:22:45 06:31:08 74° 296° (WNW) 06:39:28 29.400- 29.500
PCSat 29 Jun 06:23:19 06:27:36 23° 342° (NNW) 06:31:54 145.827
AIST 2 29 Jun 06:29:23 06:33:29 67° 129° (SE) 06:37:37 435.215
AIST 1 29 Jun 06:33:42 06:35:04 11° 280° (W) 06:36:27
Cosmos 2499 29 Jun 06:36:25 06:45:22 79° 77° (ENE) 06:53:50 435.465 / 435.565
NOAA 15 29 Jun 06:37:40 06:41:40 21° 90° (E) 06:45:37 137.62
BEESAT 3 29 Jun 06:43:07 06:45:55 18° 345° (NNW) 06:48:45 437.485
ITAMSAT 1 29 Jun 06:46:31 06:49:44 17° 310° (NW) 06:52:58 435.822/435.867
HORYU 2 29 Jun 06:55:27 06:59:58 79° 287° (WNW) 07:04:28 437.375
GONETS M04 29 Jun 07:07:26 07:15:56 59° 269° (W) 07:24:26
STRAND 1 29 Jun 07:07:40 07:12:39 52° 66° (ENE) 07:17:40 437.568
CUBESAT XI-V 29 Jun 07:10:48 07:14:20 21° 270° (W) 07:17:53 437.345
AO-85 29 Jun 07:12:54 07:17:05 33° 240° (WSW) 07:20:56 145.980
NOAA 18 29 Jun 07:16:28 07:21:30 34° 96° (E) 07:26:32 137.9125
Cubesat XI-IV 29 Jun 07:16:42 07:21:33 33° 95° (E) 07:26:22 437.490
CUSAT 1 29 Jun 07:22:05 07:28:23 31° 90° (E) 07:33:41 437.405
DOVE 4 29 Jun 07:22:10 07:23:54 12° 86° (E) 07:25:40 437.250
BEESAT 2 29 Jun 07:22:38 07:25:21 17° 348° (NNW) 07:28:05 435.950
BRITE-PL 29 Jun 07:31:35 07:35:42 53° 100° (E) 07:39:46 437.365/2234.400
LilacSat-2 29 Jun 07:46:04 07:49:54 55° 100° (E) 07:53:44 437.200
DANDE 29 Jun 07:50:13 07:57:10 31° 86° (E) 08:03:26 436.750
CUTE-I 29 Jun 07:50:38 07:55:59 58° 101° (ESE) 08:01:16 437.470
GOMX 1 29 Jun 08:01:32 08:05:37 50° 99° (E) 08:09:49 467.674
AIST 2 29 Jun 08:08:38 08:12:18 30° 331° (NNW) 08:16:01 435.215
PCSat 29 Jun 08:08:58 08:12:53 20° 8° (N) 08:16:48 145.827
CINEMA 3 29 Jun 08:12:21 08:14:35 13° 86° (E) 08:16:50 145.822/145.860
AO-7 29 Jun 08:16:08 08:22:44 27° 320° (NW) 08:29:21 29.400- 29.500
PRISM 29 Jun 08:16:39 08:20:29 37° 66° (ENE) 08:24:20 437.425
NOAA 15 29 Jun 08:16:44 08:22:00 73° 291° (WNW) 08:27:13 137.62
BEESAT 3 29 Jun 08:22:25 08:24:59 16° 9° (N) 08:27:32 437.485
Cosmos 2499 29 Jun 08:30:18 08:37:41 31° 281° (W) 08:44:46 435.465 / 435.565
HORYU 2 29 Jun 08:33:18 08:35:51 15° 307° (NW) 08:38:22 437.375
STRAND 1 29 Jun 08:47:37 08:52:06 29° 266° (W) 08:56:37 437.568
COMPASS 1 29 Jun 08:52:59 08:55:14 14° 87° (E) 08:57:27 437.405
CANX-2 29 Jun 08:53:07 08:56:51 27° 93° (E) 09:00:31 2200.000
HO-68 29 Jun 08:55:23 09:01:52 35° 94° (E) 09:08:20 435.675
Cubesat XI-IV 29 Jun 08:56:39 09:01:51 50° 294° (WNW) 09:07:01 437.490
NOAA 18 29 Jun 08:57:01 09:02:22 50° 296° (WNW) 09:07:42 137.9125
DOVE 4 29 Jun 08:58:00 09:02:16 85° 104° (ESE) 09:06:45 437.250
BEESAT 2 29 Jun 09:01:50 09:04:34 17° 12° (NNE) 09:07:19 435.950
CUSAT 1 29 Jun 09:02:50 09:10:15 67° 286° (WNW) 09:16:13 437.405
GONETS M04 29 Jun 09:06:23 09:10:49 15° 293° (WNW) 09:15:17
BRITE-PL 29 Jun 09:10:45 09:13:57 21° 300° (WNW) 09:17:06 437.365/2234.400
CUTE 1.7 + AOD 2 29 Jun 09:12:49 09:16:50 37° 96° (E) 09:20:47 437.475
TIGRISAT 29 Jun 09:15:21 09:17:56 16° 54° (NE) 09:20:33 435.000
SEEDS 29 Jun 09:15:32 09:19:18 29° 94° (E) 09:23:01 437.485
UNISAT 6 29 Jun 09:20:20 09:23:15 18° 55° (NE) 09:26:13 437.425
LilacSat-2 29 Jun 09:21:05 09:23:54 19° 300° (WNW) 09:26:43 437.200
CUTE-I 29 Jun 09:31:08 09:35:46 30° 302° (WNW) 09:40:23 437.470
DANDE 29 Jun 09:31:10 09:39:34 80° 284° (WNW) 09:46:53 436.750
CUBEBUG 2 29 Jun 09:39:57 09:43:58 29° 94° (E) 09:48:03 437.445
GOMX 1 29 Jun 09:40:14 09:43:32 23° 299° (WNW) 09:46:53 467.674
CINEMA 3 29 Jun 09:47:51 09:52:22 85° 107° (ESE) 09:57:04 145.822/145.860
AIST 2 29 Jun 09:49:13 09:51:59 17° 355° (N) 09:54:45 435.215
PRISM 29 Jun 09:52:15 09:55:53 29° 264° (W) 09:59:32 437.425
AAUSAT CUBESAT 2 29 Jun 09:52:19 09:56:16 39° 97° (E) 10:00:11 437.432
PCSat 29 Jun 09:52:51 09:57:52 35° 33° (NNE) 10:02:50 145.827
NOAA 15 29 Jun 09:57:44 10:00:59 17° 311° (NW) 10:04:13 137.62
ANTELSAT 29 Jun 09:58:47 10:02:42 34° 64° (ENE) 10:06:44 437.575/2403.000
DELFI C3 29 Jun 09:59:47 10:00:29 10° 85° (E) 10:01:11 145.870
BEESAT 3 29 Jun 10:00:09 10:03:45 32° 32° (NNE) 10:07:21 437.485
ZACube-1 29 Jun 10:02:59 10:06:42 24° 92° (E) 10:10:27 437.345
AO-7 29 Jun 10:09:13 10:12:48 14° 346° (NNW) 10:16:24 29.400- 29.500
M-CUBED/EXP-1 PRIME 29 Jun 10:10:19 10:13:26 23° 101° (E) 10:16:44 437.505
Oscar 11 29 Jun 10:11:21 10:15:09 28° 94° (E) 10:18:55 145.826/435.025
JAS-2 29 Jun 10:19:30 10:22:18 13° 40° (NE) 10:25:00 435.910
FUNcube-1 29 Jun 10:19:55 10:23:59 32° 95° (E) 10:28:05 145.935
UWE-3 29 Jun 10:25:26 10:29:55 52° 99° (E) 10:34:27 435.000/436.395/437.385
ISS 29 Jun 10:27:01 10:29:54 29° 154° (SSE) 10:32:48 145.825
COMPASS 1 29 Jun 10:27:09 10:31:23 81° 286° (WNW) 10:35:34 437.405
CANX-2 29 Jun 10:28:47 10:32:51 41° 293° (WNW) 10:36:52 2200.000
O/OREOS (USA 219) 29 Jun 10:31:30 10:33:50 14° 31° (NNE) 10:36:10 437.305
Cosmos 2491 29 Jun 10:32:26 10:39:33 27° 53° (NE) 10:46:38 435.465 / 435.565
DOVE 4 29 Jun 10:36:55 10:39:30 16° 303° (WNW) 10:42:09 437.250
Cubesat XI-IV 29 Jun 10:38:34 10:40:47 13° 316° (NW) 10:42:59 437.490
NOAA 18 29 Jun 10:39:25 10:41:52 13° 317° (NW) 10:44:21 137.9125
BEESAT 2 29 Jun 10:39:36 10:43:24 39° 35° (NE) 10:47:11 435.950
HO-68 29 Jun 10:42:56 10:50:04 65° 295° (WNW) 10:57:11 435.675
CUSAT 1 29 Jun 10:48:40 10:53:12 18° 305° (NW) 10:57:11 437.405
CUTE 1.7 + AOD 2 29 Jun 10:48:48 10:52:38 31° 296° (WNW) 10:56:24 437.475
TIGRISAT 29 Jun 10:49:38 10:53:58 87° 74° (ENE) 10:58:28 435.000
SEEDS 29 Jun 10:51:08 10:55:06 38° 293° (WNW) 10:59:00 437.485
UNISAT 6 29 Jun 10:55:04 10:59:25 80° 254° (WSW) 11:03:55 437.425
NANOSAT C BR1 29 Jun 10:57:39 11:01:06 25° 61° (ENE) 11:04:34 145.865
QB50P1 29 Jun 11:00:59 11:04:34 28° 62° (ENE) 11:08:10 145.935-145.965
AUBIESAT-1 29 Jun 11:04:13 11:08:02 64° 110° (ESE) 11:12:08 437.475
POPSAT HIP 1 29 Jun 11:04:14 11:07:52 29° 63° (ENE) 11:11:31 437.405
HUMSAT D 29 Jun 11:08:49 11:12:31 27° 93° (E) 11:16:11 437.325/437.525
CUBEBUG 2 29 Jun 11:16:24 11:20:45 44° 292° (WNW) 11:25:11 437.445
QB50P2 29 Jun 11:16:25 11:20:20 39° 66° (ENE) 11:24:17 145.880/145.840
DANDE 29 Jun 11:16:52 11:23:22 26° 304° (NW) 11:29:10 436.750
DUCHIFAT 1 29 Jun 11:17:22 11:21:09 34° 65° (ENE) 11:24:59 145.980
POLYITAN 1 29 Jun 11:19:02 11:22:57 40° 66° (ENE) 11:26:55 437.675
RS-15 29 Jun 11:21:56 11:30:52 28° 101° (E) 11:40:08 29.354- 29.394
CINEMA 3 29 Jun 11:26:05 11:29:01 17° 303° (WNW) 11:32:00 145.822/145.860
AAUSAT CUBESAT 2 29 Jun 11:28:03 11:31:40 28° 296° (WNW) 11:35:14 437.432
AIST 2 29 Jun 11:28:37 11:31:50 21° 19° (NNE) 11:35:04 435.215
DELFI C3 29 Jun 11:32:01 11:36:04 81° 104° (ESE) 11:40:03 145.870
ANTELSAT 29 Jun 11:35:25 11:39:25 35° 264° (W) 11:43:33 437.575/2403.000
PCSat 29 Jun 11:36:16 11:41:42 70° 235° (SW) 11:47:05 145.827
BEESAT 3 29 Jun 11:37:46 11:41:39 53° 232° (SW) 11:45:30 437.485
ZACube-1 29 Jun 11:38:52 11:43:16 52° 291° (WNW) 11:47:43 437.345
M-CUBED/EXP-1 PRIME 29 Jun 11:44:33 11:48:09 45° 297° (WNW) 11:52:02 437.505
Oscar 11 29 Jun 11:47:18 11:51:26 41° 293° (WNW) 11:55:31 145.826/435.025
FUNcube-1 29 Jun 11:56:05 12:00:18 40° 294° (WNW) 12:04:34 145.935
AO-7 29 Jun 11:58:32 12:02:12 14° 14° (NNE) 12:05:51 29.400- 29.500
JAS-2 29 Jun 11:59:07 12:05:53 41° 61° (ENE) 12:12:00 435.910
CUBEBUG 1 29 Jun 11:59:59 12:01:59 13° 86° (E) 12:04:00 437.445
50 SAT 29 Jun 12:00:04 12:00:56 11° 86° (E) 12:01:47 437.505
UWE-3 29 Jun 12:02:22 12:06:09 26° 299° (WNW) 12:09:59 435.000/436.395/437.385
ISS 29 Jun 12:02:49 12:06:03 64° 174° (S) 12:09:19 145.825
COMPASS 1 29 Jun 12:04:10 12:06:17 14° 306° (NW) 12:08:23 437.405
BUGSAT 1 29 Jun 12:09:24 12:13:18 52° 70° (ENE) 12:17:14 437.445
O/OREOS (USA 219) 29 Jun 12:09:56 12:14:20 50° 54° (NE) 12:18:43 437.305
VELOX 1 29 Jun 12:10:03 12:12:36 15° 88° (E) 12:15:07 145.980
BEESAT 2 29 Jun 12:17:31 12:21:17 40° 236° (SW) 12:25:02 435.950
YUBILEINY 29 Jun 12:23:03 12:30:16 30° 79° (E) 12:37:31 435.215
Cosmos 2491 29 Jun 12:29:05 12:37:52 84° 79° (E) 12:46:37 435.465 / 435.565
TIGRISAT 29 Jun 12:29:08 12:31:22 14° 274° (W) 12:33:39 435.000
HO-68 29 Jun 12:31:33 12:36:36 21° 318° (NW) 12:41:40 435.675
NANOSAT C BR1 29 Jun 12:32:37 12:36:39 46° 261° (W) 12:40:43 145.865
UNISAT 6 29 Jun 12:35:23 12:36:58 12° 276° (W) 12:38:33 437.425
QB50P1 29 Jun 12:36:15 12:40:14 41° 262° (W) 12:44:15 145.935-145.965
AUBIESAT-1 29 Jun 12:39:28 12:42:15 19° 306° (NW) 12:45:09 437.475
POPSAT HIP 1 29 Jun 12:39:38 12:43:34 38° 262° (W) 12:47:32 437.405
HUMSAT D 29 Jun 12:44:12 12:48:19 43° 292° (WNW) 12:52:24 437.325/437.525
UKube-1 29 Jun 12:45:31 12:48:44 20° 91° (E) 12:51:56 .
SPROUT 29 Jun 12:45:35 12:48:14 16° 88° (E) 12:50:52 437.525
Oscar 19 29 Jun 12:47:41 12:52:12 32° 60° (ENE) 12:56:42 437.125/150
ESTCUBE 1 29 Jun 12:49:34 12:53:59 49° 100° (E) 12:58:21 437.505/2401.250
AISAT 29 Jun 12:50:01 12:54:02 34° 96° (E) 12:58:03 437.250
QB50P2 29 Jun 12:52:37 12:56:15 28° 265° (W) 12:59:57 145.880/145.840
DUCHIFAT 1 29 Jun 12:53:09 12:56:53 31° 264° (W) 13:00:40 145.980
POLYITAN 1 29 Jun 12:55:17 12:58:54 28° 266° (W) 13:02:34 437.675
Cosmos 2504 29 Jun 12:58:18 13:03:16 17° 69° (ENE) 13:08:20 435.465 / 435.565
DX 1 29 Jun 13:06:42 13:10:45 36° 98° (E) 13:14:46 434.975-435.025
AIST 2 29 Jun 13:06:58 13:11:06 59° 41° (NE) 13:15:13 435.215
DELFI C3 29 Jun 13:08:03 13:10:24 15° 304° (WNW) 13:12:44 145.870
Gurwin Techsat 1B 29 Jun 13:12:30 13:16:52 27° 57° (ENE) 13:21:16 435.225
ITAMSAT 1 29 Jun 13:14:47 13:17:24 14° 47° (NE) 13:20:02 435.822/435.867
ZACube-1 29 Jun 13:17:43 13:18:37 11° 311° (NW) 13:19:32 437.345
PCSat 29 Jun 13:21:17 13:24:10 15° 256° (WSW) 13:27:02 145.827
RS-15 29 Jun 13:29:52 13:41:24 78° 127° (SE) 13:53:34 29.354- 29.394
50 SAT 29 Jun 13:31:28 13:35:13 88° 286° (WNW) 13:38:54 437.505
CUBEBUG 1 29 Jun 13:34:36 13:38:57 90° 112° (ESE) 13:43:17 437.445
ISS 29 Jun 13:39:09 13:42:22 54° 193° (SSW) 13:45:34 145.825
JAS-2 29 Jun 13:43:27 13:50:48 57° 260° (W) 13:57:26 435.910
VELOX 1 29 Jun 13:45:14 13:49:40 81° 287° (WNW) 13:54:03 145.980
AO-7 29 Jun 13:45:38 13:52:17 28° 41° (NE) 13:58:58 29.400- 29.500
BUGSAT 1 29 Jun 13:46:03 13:49:00 20° 269° (W) 13:51:58 437.445
O/OREOS (USA 219) 29 Jun 13:49:46 13:53:31 26° 254° (WSW) 13:57:15 437.305
TISAT 1 29 Jun 14:01:45 14:05:11 24° 93° (E) 14:08:37 437.305
YUBILEINY 29 Jun 14:17:29 14:26:13 79° 282° (WNW) 14:35:06 435.215
SPROUT 29 Jun 14:20:25 14:24:42 74° 288° (WNW) 14:28:59 437.525
UKube-1 29 Jun 14:20:54 14:25:09 58° 291° (WNW) 14:29:23 .
Oscar 19 29 Jun 14:26:21 14:31:21 50° 260° (W) 14:36:23 437.125/150
AISAT 29 Jun 14:26:32 14:30:33 35° 296° (WNW) 14:34:33 437.250
Cosmos 2491 29 Jun 14:26:48 14:33:45 28° 282° (WNW) 14:40:43 435.465 / 435.565
ESTCUBE 1 29 Jun 14:26:48 14:30:35 27° 299° (WNW) 14:34:19 437.505/2401.250
DX 1 29 Jun 14:43:02 14:46:55 32° 297° (WNW) 14:50:46 434.975-435.025
AIST 2 29 Jun 14:45:52 14:49:20 25° 241° (WSW) 14:52:46 435.215
Cosmos 2504 29 Jun 14:46:40 14:54:49 64° 92° (E) 15:03:29 435.465 / 435.565
ITAMSAT 1 29 Jun 14:50:47 14:55:54 59° 68° (ENE) 15:01:04 435.822/435.867
Gurwin Techsat 1B 29 Jun 14:51:11 14:56:28 65° 258° (WSW) 15:01:48 435.225
SWISSCUBE 29 Jun 14:57:25 15:01:09 22° 91° (E) 15:04:52 437.505
50 SAT 29 Jun 15:06:46 15:08:18 12° 305° (NW) 15:09:50 437.505
CUBEBUG 1 29 Jun 15:12:05 15:14:40 16° 305° (NW) 15:17:14 437.445
ISS 29 Jun 15:15:54 15:18:23 20° 212° (SSW) 15:20:51 145.825
BEESAT 29 Jun 15:22:14 15:26:34 32° 95° (E) 15:30:50 436.000
VELOX 1 29 Jun 15:23:03 15:25:29 15° 307° (NW) 15:27:54 145.980
ITUPSAT 1 29 Jun 15:23:59 15:28:19 32° 95° (E) 15:32:38 437.325
JAS-2 29 Jun 15:33:56 15:37:09 13° 280° (W) 15:40:15 435.910
AO-7 29 Jun 15:35:38 15:43:57 76° 64° (ENE) 15:52:20 29.400- 29.500
TISAT 1 29 Jun 15:37:01 15:41:04 46° 292° (WNW) 15:45:06 437.305
RS-15 29 Jun 15:43:14 15:54:50 57° 337° (NNW) 16:06:58 29.354- 29.394
KKS-1 29 Jun 15:56:46 15:56:56 10° 84° (E) 15:57:07 437.445
SPROUT 29 Jun 15:57:57 15:59:57 13° 307° (NW) 16:01:56 437.525
UKube-1 29 Jun 15:59:10 16:00:21 11° 311° (NW) 16:01:32 .
SO-50 29 Jun 16:01:48 16:05:28 21° 115° (ESE) 16:09:07 436.795
YUBILEINY 29 Jun 16:17:45 16:24:40 25° 309° (NW) 16:31:41 435.215
HORYU 2 29 Jun 16:23:28 16:27:24 31° 62° (ENE) 16:31:22 437.375
STARS 29 Jun 16:25:32 16:26:05 10° 84° (E) 16:26:39 437.465
NOAA 15 29 Jun 16:27:05 16:29:53 15° 47° (NE) 16:32:40 137.62
ITAMSAT 1 29 Jun 16:31:22 16:35:44 27° 268° (W) 16:40:09 435.822/435.867
SWISSCUBE 29 Jun 16:34:37 16:39:22 62° 291° (WNW) 16:44:06 437.505
Gurwin Techsat 1B 29 Jun 16:35:33 16:37:29 12° 278° (W) 16:39:27 435.225
Cosmos 2504 29 Jun 16:40:58 16:48:46 41° 297° (WNW) 16:57:01 435.465 / 435.565
BEESAT 29 Jun 16:59:56 17:04:29 43° 295° (WNW) 17:09:00 436.000
ITUPSAT 1 29 Jun 17:01:44 17:06:18 43° 295° (WNW) 17:10:49 437.325
LilacSat-2 29 Jun 17:03:36 17:03:57 10° 53° (NE) 17:04:19 437.200
Cubesat XI-IV 29 Jun 17:06:55 17:10:48 21° 52° (NE) 17:14:41 437.490
NOAA 18 29 Jun 17:10:06 17:14:27 25° 54° (NE) 17:18:49 137.9125
BRITE-PL 29 Jun 17:11:21 17:14:54 21° 59° (ENE) 17:18:16 437.365/2234.400
CUBESAT XI-V 29 Jun 17:24:54 17:25:40 10° 82° (E) 17:26:27 437.345
